Location: Unspecified
(0.0000°N, 0.0000°E)
Time: 01:25:39
(UTC+00:00)

Courier 1B - Pass Details

Date: 21 November 2019
Orbit: 963 x 1209 km, 28.3° (Epoch: 11 December)

Event Time Altitude Azimuth Distance (km) Brightness Sun altitude
Rises 13:53:34 0° 286° (WNW) 3,649 10.8 52.9°
Reaches altitude 10° 13:56:18 10° 279° (W) 2,721 10.4 52.4°
Maximum altitude 14:02:30 43° 209° (SSW) 1,379 10.0 51.1°
Drops below altitude 10° 14:09:02 10° 139° (SE) 2,865 10.0 49.7°
Sets 14:12:00 0° 132° (SE) 3,861 10.5 49.1°
